Weather History for Juneau, AK

Change the Weather History Date:

Monday, November 5, 2012

  Actual Average Record
Temperature  
Mean Temperature 41 °F 36 °F  
Max Temperature 44 °F 40 °F 53 °F (1949)
Min Temperature 37 °F 31 °F 10 °F (2006)
Degree Days  
Heating Degree Days 24 29  
Month to date heating degree days 142 143  
Since 1 July heating degree days 2032 1828  
Moisture  
Dew Point 38 °F    
Average Humidity 92    
Maximum Humidity 100    
Minimum Humidity 83    
Precipitation  
Precipitation 0.40 in 0.21 in 0.72 in (1964)
Month to date precipitation 1.14 1.07  
Year to date precipitation 55.07 51.51  
Snow  
Snow 0.00 in 0.30 in 7.30 in (1950)
Month to date snowfall T 1.2  
Since 1 July snowfall 1.4 2.0  
Since 1 September snowfall 1.4 2.0  
Snow Depth -    
Sea Level Pressure  
Sea Level Pressure 29.81 in    
Wind  
Wind Speed 9 mph (East)    
Max Wind Speed 23 mph    
Max Gust Speed 31 mph    
Visibility 9 miles    
Events Rain    
T = Trace of Precipitation, MM = Missing Value Source: NWS Daily Summary

Daily Weather History Graph

Daily Weather History Graph

Search for Another Location

Airport:

Trip Planner

Search our weather history database for the weather conditions in past years. The results will help you decide how hot, cold, wet, or windy it might be!

Date:

Astronomy

Nov. 05, 2012 Rise Set
Actual Time 7:24 AM AKST 3:58 PM AKST
Civil Twilight 6:41 AM AKST 4:41 PM AKST
Nautical Twilight 5:53 AM AKST 5:29 PM AKST
Astronomical Twilight 5:07 AM AKST 6:15 PM AKST
Moon 9:46 PM AKST (11/5) 12:49 PM AKST (11/5)
Length of Visible Light 10h 00m
Length of Day
8h 33m
Waning Gibbous, 61% of the Moon is Illuminated
Nov 5
Waning Gibbous
Nov 6
Last Quarter
Nov 13
New
Nov 20
First Quarter
Nov 28
Full

Hourly Weather History & Observations

Time (AKST) Temp. Windchill Dew Point Humidity Pressure Visibility Wind Dir Wind Speed Gust Speed Precip Events Conditions
12:53 AM 37.0 °F 34.5 °F 37.0 °F 100% 29.41 in 4.0 mi East 3.5 mph - 0.03 in Rain Light Rain
1:16 AM 37.4 °F - 37.4 °F 100% 29.43 in 3.0 mi Calm Calm - 0.02 in Rain Light Rain
1:53 AM 37.0 °F 33.3 °F 36.0 °F 96% 29.47 in 3.0 mi ENE 4.6 mph - 0.04 in Rain Light Rain
2:32 AM 39.2 °F 33.6 °F 39.2 °F 100% 29.51 in 5.0 mi East 8.1 mph - 0.03 in Rain Light Rain
3:53 AM 39.9 °F 33.4 °F 37.9 °F 93% 29.59 in 7.0 mi ENE 10.4 mph - 0.07 in Rain Light Rain
4:53 AM 39.0 °F 36.8 °F 37.9 °F 96% 29.64 in 10.0 mi NE 3.5 mph - 0.06 in Rain Light Rain
5:53 AM 39.0 °F 33.4 °F 37.0 °F 93% 29.68 in 10.0 mi East 8.1 mph - 0.03 in Rain Light Rain
6:31 AM 39.2 °F 35.9 °F 37.4 °F 93% 29.71 in 10.0 mi ENE 4.6 mph - 0.02 in Rain Light Rain
6:53 AM 39.9 °F 35.8 °F 37.9 °F 93% 29.73 in 10.0 mi East 5.8 mph - 0.02 in Rain Light Rain
7:05 AM 39.2 °F 35.0 °F 37.4 °F 93% 29.73 in 10.0 mi NE 5.8 mph - 0.01 in Rain Light Rain
7:53 AM 41.0 °F 35.8 °F 39.0 °F 93% 29.77 in 10.0 mi East 8.1 mph - 0.02 in Rain Light Rain
8:25 AM 42.8 °F 36.2 °F 39.2 °F 87% 29.78 in 10.0 mi East 12.7 mph 18.4 mph 0.00 in   Overcast
8:53 AM 43.0 °F 35.4 °F 39.9 °F 89% 29.79 in 10.0 mi ESE 16.1 mph - 0.00 in   Overcast
9:53 AM 44.1 °F 36.8 °F 39.9 °F 85% 29.82 in 10.0 mi ESE 16.1 mph 23.0 mph 0.00 in Rain Light Rain
10:53 AM 43.0 °F 35.1 °F 39.9 °F 89% 29.86 in 9.0 mi ESE 17.3 mph 26.5 mph 0.00 in Rain Light Rain
11:53 AM 44.1 °F 35.7 °F 39.9 °F 85% 29.88 in 10.0 mi ESE 20.7 mph 27.6 mph 0.00 in Rain Light Rain
12:38 PM 42.8 °F 34.3 °F 39.2 °F 87% 29.91 in 10.0 mi ESE 19.6 mph - 0.00 in Rain Light Rain
12:53 PM 43.0 °F 35.7 °F 41.0 °F 93% 29.92 in 10.0 mi ESE 15.0 mph 21.9 mph 0.01 in Rain Light Rain
1:53 PM 42.1 °F 34.5 °F 39.9 °F 92% 29.95 in 10.0 mi SSE 15.0 mph 31.1 mph 0.04 in Rain Light Rain
2:53 PM 42.1 °F 33.6 °F 37.9 °F 85% 29.97 in 10.0 mi ESE 18.4 mph - 0.04 in   Overcast
3:53 PM 41.0 °F 33.9 °F 37.9 °F 89% 29.98 in 8.0 mi ESE 12.7 mph - 0.02 in Rain Light Rain
4:53 PM 41.0 °F 32.2 °F 37.9 °F 89% 29.99 in 10.0 mi ESE 18.4 mph 25.3 mph 0.01 in   Overcast
5:53 PM 41.0 °F 32.8 °F 37.0 °F 86% 29.99 in 10.0 mi ESE 16.1 mph - 0.01 in   Overcast
6:53 PM 41.0 °F 33.1 °F 37.0 °F 86% 30.00 in 8.0 mi ESE 15.0 mph - N/A   Overcast
7:53 PM 41.0 °F 33.5 °F 37.0 °F 86% 30.00 in 10.0 mi ESE 13.8 mph - N/A   Overcast
8:53 PM 41.0 °F 33.5 °F 37.0 °F 86% 29.99 in 10.0 mi ESE 13.8 mph - 0.00 in   Overcast
9:53 PM 41.0 °F 34.3 °F 37.0 °F 86% 29.96 in 10.0 mi ESE 11.5 mph - N/A   Overcast
10:53 PM 39.9 °F 31.4 °F 37.0 °F 89% 29.94 in 8.0 mi East 16.1 mph 23.0 mph 0.01 in Rain Light Rain
11:53 PM 39.9 °F 31.1 °F 37.0 °F 89% 29.92 in 8.0 mi ESE 17.3 mph - 0.05 in Rain Light Rain